Wind_Speed
23 24 25 25 22 18 17 18 19 18 16 15 16 18 20 21 22 23 23 22 22 21 20 19 19 18 18 18 18 17 16 16 16 15 15 15 14 13 12 11 11 11 10 10 9 10 10 10 10 10 10 10 10 10 11 11 11 11 11 11 11 12 12
20 21 24 25 24 21 18 19 20 19 17 16 17 18 20 21 22 23 24 24 24 24 22 21 21 20 19 19 19 19 18 17 16 15 15 14 14 13 12 11 10 9 9 8 8 9 9 10 10 10 10 10 10 10 10 10 10 10 10 10 10 11 11
18 19 21 23 24 22 20 19 21 20 17 16 16 16 18 20 22 23 25 26 26 26 25 23 22 22 21 20 20 19 19 18 16 15 15 15 15 14 13 12 10 9 8 7 7 7 8 9 9 10 10 10 10 10 10 9 9 9 10 10 10 11 11
17 18 20 22 23 24 22 21 22 20 17 16 16 15 17 19 22 25 26 27 28 27 26 25 24 24 23 22 21 21 20 19 18 17 16 16 15 14 13 12 11 9 8 7 7 7 8 8 9 10 10 11 11 10 10 10 10 10 10 11 11 11 11
17 18 19 20 22 23 22 22 24 21 18 17 17 16 17 19 23 26 27 28 28 28 28 28 28 26 25 23 23 22 21 21 20 20 19 17 16 14 13 12 12 10 9 7 7 7 7 8 9 10 11 12 12 12 11 11 12 12 11 11 12 12 12
17 16 16 17 19 21 21 23 25 23 20 18 18 18 17 18 20 23 27 28 29 30 30 30 29 28 26 25 24 24 22 22 21 21 20 18 16 15 15 14 13 11 10 8 8 7 7 8 9 10 11 13 13 13 13 13 13 12 12 12 12 13 13
19 16 15 15 17 19 20 21 23 23 22 21 20 20 19 17 18 21 25 28 29 31 31 30 29 28 27 27 26 25 24 23 22 21 21 19 18 17 16 15 14 13 11 10 9 9 8 9 9 9 11 13 14 14 14 14 13 13 12 12 13 13 14
20 16 15 17 17 19 21 22 21 22 23 23 23 21 20 18 18 18 21 25 29 31 31 31 30 29 29 28 27 26 25 25 24 23 22 20 19 19 17 16 15 14 12 12 11 11 10 9 9 10 10 12 14 14 15 15 14 14 13 12 13 13 13
25 21 18 18 20 22 23 24 25 25 26 26 25 22 21 20 19 18 18 22 27 29 30 31 31 31 30 30 28 28 27 27 26 24 23 21 20 20 19 18 16 15 14 14 13 13 12 11 11 10 10 12 14 15 16 16 16 15 14 13 13 13 13
31 29 26 22 21 23 25 26 28 29 29 28 26 24 23 21 21 20 19 20 23 27 30 32 32 32 32 31 30 30 29 28 27 25 23 22 21 21 20 19 18 16 16 16 15 14 14 13 12 11 11 12 14 15 17 18 17 16 15 14 13 13 13
36 33 31 29 26 24 24 26 28 29 30 29 28 27 25 24 23 23 21 20 21 25 30 33 33 33 33 33 32 31 30 29 27 25 23 23 22 22 22 21 20 19 19 18 17 16 15 14 14 13 13 13 15 16 18 19 18 17 16 15 14 13 12
41 38 35 34 32 30 28 26 26 27 29 31 31 30 29 28 27 25 24 23 22 24 29 33 34 34 34 34 34 33 31 30 28 26 25 25 25 25 25 24 22 22 21 20 19 18 17 16 16 15 15 15 15 17 18 19 19 19 18 16 15 14 13
44 42 40 38 36 35 33 31 28 26 26 29 32 33 32 32 31 30 28 27 26 26 28 31 35 36 36 36 35 34 33 31 29 28 27 27 28 28 27 26 25 24 23 21 20 20 18 17 17 18 18 17 17 17 19 20 20 19 18 17 16 15 14
46 45 43 41 38 37 36 35 33 29 27 27 32 35 36 36 35 34 33 31 31 30 29 30 34 37 37 37 37 36 35 33 32 31 30 30 30 30 29 28 27 25 24 23 22 20 20 19 19 20 19 18 18 18 19 20 21 20 19 18 17 17 16
47 46 45 43 41 40 40 38 37 35 31 29 32 36 38 38 38 38 36 35 34 33 31 30 33 36 38 39 38 37 37 36 35 34 33 32 31 30 29 28 28 27 26 25 23 22 22 21 21 21 20 19 19 18 19 20 21 22 21 20 19 19 18
47 46 46 45 43 43 42 41 40 39 36 33 33 36 38 38 39 39 39 38 37 35 33 32 32 35 38 39 39 39 39 38 37 36 35 34 32 31 31 30 29 28 27 26 25 24 23 23 22 21 20 20 19 19 18 19 22 23 23 23 22 20 20
47 46 46 46 46 46 44 42 42 43 41 38 36 36 38 38 38 39 39 39 38 36 34 33 32 33 36 38 39 40 41 40 39 38 37 35 34 33 33 32 31 30 29 28 26 26 25 24 22 21 21 21 20 20 19 19 22 24 25 25 24 23 21
48 46 46 46 47 48 46 42 43 45 46 43 40 39 38 38 38 39 40 40 38 37 36 34 32 32 34 37 40 41 42 41 41 40 39 37 36 36 35 34 33 32 31 29 28 27 27 26 24 23 22 22 21 21 20 21 22 24 25 27 26 25 24
49 47 47 48 48 48 46 44 44 47 49 48 45 43 40 38 38 39 40 40 39 38 37 35 33 33 34 37 40 42 43 43 42 42 41 39 39 38 37 36 35 33 32 31 31 30 29 27 26 25 24 23 22 22 22 23 23 24 25 27 28 28 27
50 48 48 49 50 49 48 47 48 49 51 52 50 48 45 41 38 38 39 40 40 40 38 36 35 35 35 37 40 42 43 44 44 44 43 42 41 40 39 37 36 35 34 34 33 32 30 29 28 27 26 25 24 24 24 24 25 25 25 27 29 30 30
52 51 51 51 51 51 51 50 51 52 53 54 53 52 49 46 42 39 39 40 41 41 40 39 37 36 36 37 39 42 44 44 44 44 44 44 43 42 41 39 37 36 35 35 35 34 32 32 31 29 29 28 27 26 25 25 26 27 26 27 29 30 31
54 52 53 53 53 52 53 53 54 55 55 55 55 55 53 51 47 43 41 40 41 41 41 41 40 38 38 39 40 42 43 44 45 45 45 45 45 44 42 40 39 38 37 37 36 36 35 34 33 32 31 30 29 28 27 27 28 28 28 28 29 31 31
55 54 54 56 56 55 55 55 55 56 57 57 57 57 56 54 52 49 45 43 43 43 43 43 42 41 40 40 41 41 42 43 44 44 44 44 44 43 42 41 40 39 39 38 37 37 36 35 35 34 34 33 32 31 30 30 30 30 30 30 31 31 31
57 56 58 59 60 59 58 57 57 58 59 59 59 58 58 57 55 53 50 47 46 46 46 46 45 44 43 42 41 41 41 41 41 42 42 42 42 40 39 38 38 39 39 39 38 38 38 37 37 37 36 35 34 33 32 32 33 32 32 32 32 32 32
61 60 60 61 62 62 61 60 59 60 60 61 61 60 59 59 58 56 54 52 51 52 51 49 48 46 45 43 42 41 40 39 38 39 40 40 40 38 37 36 36 38 39 38 38 38 38 39 38 38 37 36 35 35 34 34 34 34 33 33 34 33 33
67 65 63 61 61 63 64 63 62 62 62 63 64 62 59 59 59 59 58 55 54 55 54 52 51 49 47 45 43 41 39 37 36 36 36 37 38 38 37 37 36 37 38 37 37 38 39 39 38 38 38 37 36 36 34 34 35 35 35 35 35 35 35
68 68 66 62 60 63 67 67 65 64 63 64 66 64 60 59 60 60 59 57 55 55 56 54 52 50 48 46 44 42 40 37 35 34 34 35 37 38 38 37 37 37 37 37 37 38 37 38 38 37 37 38 37 35 34 34 35 35 35 36 36 36 36
69 70 68 64 60 61 66 70 68 65 64 64 67 67 63 61 62 61 60 58 55 54 54 52 50 49 48 47 45 43 41 39 36 34 34 35 37 38 39 38 37 38 37 36 36 36 34 34 35 35 36 38 37 35 33 33 34 35 36 36 36 36 36
71 72 70 67 61 59 63 69 70 68 64 62 65 68 65 63 64 63 60 58 55 53 53 53 52 50 47 47 48 46 43 41 38 35 35 36 38 40 40 39 37 37 36 35 36 35 33 32 33 33 34 35 34 32 32 32 33 34 35 36 36 36 36
72 73 73 71 65 59 60 66 70 70 68 63 63 66 67 66 65 64 62 59 56 54 55 56 56 54 49 48 48 47 44 42 40 39 39 39 40 41 40 39 38 37 36 36 35 34 33 32 32 32 31 31 30 29 28 29 30 31 33 34 35 36 36
75 75 75 74 70 63 61 64 66 67 68 64 61 63 67 69 69 67 64 62 59 57 56 57 57 56 53 49 48 46 44 43 42 42 43 42 42 42 41 40 39 38 36 36 36 34 33 32 31 30 29 28 26 26 26 27 28 29 30 32 33 34 34
77 77 77 77 75 70 66 65 62 61 65 65 60 60 65 70 70 68 66 63 61 60 58 57 57 57 54 52 50 47 45 45 45 45 45 44 44 45 44 43 41 39 38 37 37 35 34 32 31 30 29 27 25 24 25 26 26 27 28 29 31 32 32
80 80 79 79 79 76 72 69 64 61 64 64 59 57 63 69 69 67 66 63 60 59 59 58 57 57 55 53 52 50 48 48 48 48 47 46 47 48 47 46 44 42 40 39 38 37 35 34 33 32 31 28 26 25 25 26 26 26 27 28 29 30 31
82 83 82 81 81 80 78 76 71 64 61 59 52 49 57 68 70 66 65 64 61 59 60 59 58 57 56 53 52 51 51 51 51 50 49 48 48 49 49 48 46 45 43 42 41 40 38 37 36 35 33 31 30 29 28 27 26 26 27 29 30 31 31
82 84 85 84 83 83 82 82 79 72 65 60 53 45 48 60 69 68 65 64 62 60 60 60 60 59 57 54 52 52 53 54 54 53 52 51 51 51 52 51 51 49 46 44 44 43 42 40 39 38 37 36 35 34 33 30 27 28 30 32 33 32 33
83 85 86 86 85 85 85 84 83 80 75 72 65 54 45 47 58 66 66 62 60 59 58 58 60 60 59 57 55 53 55 55 55 54 54 55 55 55 56 56 56 53 49 46 45 45 43 42 40 39 39 39 39 39 37 33 31 31 33 34 34 35 35
85 85 87 88 88 87 87 86 85 84 83 81 76 67 56 46 47 58 64 62 59 58 56 55 56 57 59 58 57 55 55 55 56 56 57 58 57 57 57 59 59 56 51 47 46 46 44 42 40 39 40 40 40 40 40 38 37 36 36 36 37 38 38
90 88 87 89 90 89 88 88 86 85 87 87 82 76 68 57 47 51 60 63 60 58 58 56 54 55 56 56 56 56 55 55 56 57 58 60 59 57 57 59 60 57 52 50 49 48 46 43 42 40 39 38 38 39 40 40 41 41 40 40 40 40 40
Wind_Direction
190 194 196 195 195 197 203 206 205 201 194 187 186 190 194 199 202 201 201 199 196 193 193 195 194 193 193 193 193 195 195 193 192 189 185 183 182 183 184 183 182 180 176 174 171 167 163 162 164 166 165 164 164 163 161 159 159 162 167 172 175 176 178
195 195 198 198 195 193 199 206 206 202 198 193 193 193 194 196 199 201 201 201 199 196 194 195 195 194 196 196 195 196 196 196 195 192 189 186 185 186 185 187 188 185 179 175 172 169 165 162 165 170 170 169 169 168 165 162 161 162 165 170 173 175 177
200 196 197 198 195 193 197 202 201 200 202 201 200 198 198 198 199 201 202 201 199 197 195 195 196 196 196 195 196 198 198 197 197 195 193 192 190 188 187 189 189 186 182 177 174 171 166 164 166 170 174 174 175 174 169 166 165 165 168 171 172 173 176
202 198 195 193 192 193 196 197 195 197 202 204 204 203 201 202 203 203 203 201 199 197 195 195 197 198 197 193 194 198 199 198 198 198 198 198 196 192 190 191 191 191 190 182 176 174 170 170 171 173 176 178 180 179 175 171 169 170 172 174 173 172 175
203 199 195 191 190 192 195 195 194 196 200 202 204 207 207 207 208 207 205 203 200 197 197 196 196 198 197 194 192 195 199 199 198 199 201 202 201 198 196 196 197 199 196 190 189 184 178 178 178 177 179 183 183 181 180 175 171 172 174 175 174 172 173
190 185 182 183 186 187 190 196 197 194 195 200 204 208 213 213 214 213 211 206 201 200 199 199 198 198 197 196 194 193 197 200 200 200 202 204 205 204 204 202 202 204 200 198 200 194 186 188 188 182 181 185 185 183 181 177 172 170 171 172 172 171 172
175 163 157 163 173 180 185 195 200 195 192 198 204 209 214 216 216 217 216 212 206 202 202 201 200 200 199 199 196 194 195 198 201 201 202 204 206 209 210 208 208 207 204 203 203 201 196 196 197 192 186 187 189 186 181 177 172 169 167 167 168 169 171
179 172 163 159 164 174 181 188 196 199 196 199 204 210 216 220 221 221 220 218 213 207 204 203 202 201 201 201 200 197 196 198 201 201 200 201 204 209 211 212 213 211 207 206 206 206 203 199 201 200 193 192 193 189 183 177 173 171 169 167 166 167 168
198 200 194 181 172 173 180 185 190 196 199 199 202 209 215 221 225 225 223 222 218 212 207 205 204 203 203 203 202 201 200 201 202 202 200 199 202 207 209 211 213 213 211 211 209 209 207 204 205 205 199 196 196 193 186 180 177 175 173 171 168 167 167
210 213 214 209 195 183 182 186 190 194 197 197 199 205 210 216 222 225 225 224 221 216 211 208 206 205 205 205 205 204 204 204 204 204 202 200 201 207 210 211 212 213 214 215 212 211 209 207 209 210 205 200 199 196 190 185 183 181 178 176 174 172 170
216 219 222 223 219 208 197 192 191 193 196 197 198 202 206 210 216 221 224 224 223 220 215 210 207 207 207 207 207 207 207 206 205 204 202 202 203 207 211 212 213 214 216 217 215 214 211 207 209 211 209 206 203 201 196 192 188 186 184 181 178 176 175
219 222 225 227 226 223 218 211 201 196 197 198 199 201 204 206 210 214 219 221 222 222 218 213 209 208 209 209 209 208 208 208 207 203 202 203 204 208 211 213 213 215 217 218 218 217 213 208 208 211 212 210 209 206 202 198 194 191 188 186 183 181 180
221 222 225 227 227 226 226 224 217 210 207 205 201 200 202 205 206 209 212 216 220 222 220 216 212 210 209 210 210 210 209 209 208 205 203 204 205 209 212 213 213 215 217 219 220 220 217 211 209 212 214 213 211 210 207 204 200 196 192 190 187 186 185
226 225 226 226 226 225 225 227 225 221 219 217 210 204 202 204 205 207 209 211 215 219 220 218 214 212 211 210 211 211 211 210 209 208 207 206 207 210 212 214 215 215 216 218 219 220 220 216 213 215 216 215 213 213 211 207 205 201 197 195 194 192 191
230 230 230 229 227 225 224 225 227 225 222 223 220 213 208 206 206 207 208 210 213 216 218 219 217 214 213 212 211 212 213 213 211 210 210 210 210 211 213 215 216 216 216 217 217 219 221 221 219 218 219 218 216 216 214 210 207 206 203 200 199 199 197
231 231 233 232 229 227 226 224 227 228 225 224 223 219 215 212 210 209 209 210 213 215 217 219 219 217 215 213 212 213 214 215 214 212 212 213 213 213 213 214 216 217 217 217 216 218 220 222 222 221 221 221 220 219 216 212 210 209 207 205 205 205 204
230 229 231 232 230 230 229 226 227 230 227 223 221 220 219 217 215 214 213 214 215 216 218 219 220 219 218 216 215 215 215 216 216 215 215 214 215 215 215 214 215 216 217 217 217 218 220 222 223 223 223 222 222 222 219 215 213 212 210 210 210 210 209
228 227 228 228 227 229 230 228 227 229 227 222 219 220 219 218 217 217 216 217 218 218 220 220 220 221 220 218 217 218 217 217 218 217 217 216 216 217 217 216 216 216 218 219 219 220 221 222 223 224 225 223 222 222 220 219 217 216 214 213 214 215 214
226 225 224 224 224 226 228 227 226 227 226 222 219 218 218 217 216 217 219 220 220 221 223 222 222 222 222 221 220 220 219 218 218 219 218 218 218 218 218 218 217 217 218 220 222 223 224 224 224 226 227 226 224 222 221 220 221 220 218 216 217 218 218
221 221 220 220 222 225 227 228 227 226 225 222 220 218 217 216 215 216 219 221 222 223 225 224 223 223 223 224 224 224 223 221 220 219 219 219 219 219 219 219 218 218 219 220 223 225 226 226 226 227 229 229 226 223 222 222 223 224 223 221 221 221 221
218 217 217 219 222 224 227 227 226 225 225 223 221 219 218 216 216 216 218 221 224 225 226 225 224 224 225 225 225 225 225 225 223 222 221 221 220 220 220 219 219 219 220 221 223 225 226 226 227 228 230 230 230 228 225 223 225 227 227 226 226 226 225
215 215 217 219 222 224 226 226 225 225 225 224 222 220 219 218 217 216 217 220 224 226 227 227 226 225 225 226 226 226 225 225 224 224 224 224 224 223 222 221 220 221 221 222 223 224 225 226 228 229 230 231 232 231 229 227 227 228 230 230 230 231 230
216 218 219 219 221 223 225 225 224 223 225 226 224 222 220 219 218 218 218 220 222 225 227 227 227 226 225 226 228 228 227 226 226 225 225 226 227 227 227 226 225 224 224 224 224 225 225 226 227 228 229 230 232 232 231 230 229 229 230 232 233 235 235
218 222 222 219 220 223 224 225 225 224 224 225 226 224 222 220 219 219 220 220 222 224 225 226 226 226 226 226 227 228 230 229 228 227 226 227 228 228 229 230 231 231 230 228 227 226 226 226 226 227 228 229 231 232 232 232 232 231 231 232 235 237 237
220 222 222 220 221 223 225 225 226 226 225 226 227 226 224 223 221 220 220 221 222 223 224 224 224 224 225 226 227 228 230 230 229 228 228 228 227 225 225 227 230 234 236 236 234 232 231 230 229 229 229 229 230 231 232 233 235 236 234 234 236 237 238
221 220 221 222 223 222 224 225 226 226 226 226 228 228 226 226 225 223 222 223 224 224 223 223 222 222 222 223 225 226 228 228 229 229 229 227 225 223 224 225 226 231 235 238 239 238 237 235 234 233 233 233 232 232 233 234 237 239 239 239 240 240 240
219 219 221 223 223 222 222 224 225 226 227 227 229 230 228 226 228 227 225 225 226 227 225 223 221 220 220 221 221 222 223 223 223 224 224 223 222 222 224 225 226 229 232 233 235 238 240 239 238 237 237 238 236 235 235 236 238 241 243 244 245 246 245
219 219 221 223 222 221 221 223 224 225 227 228 228 230 230 227 227 229 228 226 226 227 227 226 223 220 219 219 220 220 219 218 217 217 218 219 220 221 222 225 227 230 230 228 230 234 238 240 241 240 240 241 240 238 238 238 240 242 244 246 248 249 250
222 220 222 223 222 220 220 223 224 225 227 229 227 227 230 229 227 228 230 228 226 226 227 227 226 224 220 218 218 218 217 216 213 213 214 215 217 219 221 223 227 228 226 224 226 229 231 234 238 240 240 241 241 240 239 240 241 243 245 247 249 249 250
225 224 223 224 224 221 219 221 224 226 228 232 230 227 228 230 228 227 229 229 226 225 226 226 226 226 223 219 216 215 215 215 212 211 212 214 217 220 222 224 226 227 224 221 222 225 226 229 234 237 238 240 241 240 240 241 243 245 247 249 250 251 251
225 226 226 226 225 222 219 220 224 226 228 232 233 230 228 229 228 227 227 226 224 223 225 226 226 226 225 221 218 217 215 214 214 213 213 214 217 220 222 224 225 225 223 221 222 224 225 227 232 235 236 238 240 241 242 243 245 247 249 251 253 254 255
225 226 228 229 228 226 222 220 221 224 228 231 234 234 230 227 225 225 225 224 222 221 223 225 226 226 225 222 220 221 220 217 217 217 216 215 216 219 221 223 224 224 224 224 225 226 226 228 231 234 236 238 240 242 245 246 246 247 249 251 254 256 258
226 226 227 229 230 229 227 224 222 222 225 229 233 234 229 223 221 223 225 225 223 221 221 223 225 226 225 222 221 223 223 222 221 222 220 217 218 221 223 223 224 225 226 227 228 229 228 229 231 234 236 237 237 240 244 248 249 250 251 252 254 256 257
228 227 227 228 230 231 231 230 226 222 220 223 226 230 228 223 221 223 226 226 224 222 221 222 223 225 225 222 219 221 224 224 225 225 224 222 222 223 224 225 225 226 226 228 230 231 230 230 231 233 234 234 234 236 239 243 249 252 253 253 253 254 256
229 229 228 228 229 231 232 233 232 227 221 221 225 228 227 224 222 222 224 225 224 221 221 221 222 223 225 224 222 223 225 226 227 227 227 226 224 224 226 229 229 227 226 227 231 232 232 232 232 233 234 234 235 235 236 237 241 248 252 253 254 256 257
229 229 229 228 229 230 232 234 235 233 228 226 228 230 230 228 225 223 222 224 224 221 219 220 221 222 224 225 225 225 227 228 229 230 230 229 228 228 229 230 231 228 225 225 230 232 232 232 232 233 235 236 237 238 238 236 236 240 247 252 256 258 259
228 229 229 229 229 230 232 234 236 236 235 233 232 232 232 234 233 227 223 223 224 223 221 221 222 223 224 226 226 227 227 229 230 231 232 233 233 233 230 228 228 228 224 223 228 231 232 232 232 232 234 237 239 240 241 239 238 239 243 248 252 255 258
228 228 229 229 229 230 233 235 237 238 239 238 237 236 234 234 237 234 227 224 225 225 223 223 224 225 225 226 226 227 229 231 232 233 233 233 233 234 230 226 225 225 223 223 227 229 231 232 232 232 234 236 238 240 241 242 242 242 243 245 248 251 254
Height
5890 5892 5894 5896 5898 5901 5902 5904 5905 5907 5908 5909 5910 5911 5914 5916 5919 5921 5924 5926 5928 5930 5932 5934 5935 5936 5937 5939 5940 5942 5943 5944 5946 5947 5948 5950 5951 5952 5953 5954 5955 5955 5956 5956 5956 5956 5956 5956 5957 5957 5958 5958 5959 5960 5960 5961 5961 5962 5962 5963 5964 5964 5965
5889 5891 5893 5895 5897 5899 5901 5902 5904 5906 5907 5908 5909 5910 5912 5914 5917 5920 5922 5924 5926 5928 5930 5932 5934 5935 5936 5938 5940 5941 5942 5944 5945 5947 5948 5950 5951 5951 5953 5954 5955 5956 5956 5957 5957 5956 5956 5956 5956 5957 5957 5958 5958 5959 5959 5960 5960 5961 5962 5962 5963 5964 5965
5888 5889 5891 5894 5896 5897 5899 5901 5903 5905 5906 5907 5908 5910 5911 5913 5915 5917 5919 5921 5924 5926 5928 5930 5932 5934 5935 5937 5939 5941 5942 5943 5945 5946 5948 5949 5950 5951 5952 5953 5954 5955 5956 5956 5957 5956 5956 5955 5956 5956 5956 5957 5957 5958 5958 5959 5960 5960 5961 5962 5963 5963 5964
5888 5888 5889 5891 5893 5895 5897 5899 5902 5904 5905 5906 5907 5909 5910 5911 5913 5914 5917 5919 5921 5924 5926 5928 5930 5932 5933 5935 5938 5939 5941 5942 5944 5945 5946 5948 5949 5950 5951 5952 5953 5954 5955 5956 5956 5956 5956 5955 5955 5955 5956 5956 5957 5957 5958 5959 5959 5960 5961 5962 5962 5963 5964
5888 5888 5888 5889 5891 5893 5896 5898 5900 5902 5903 5905 5906 5907 5908 5909 5911 5913 5915 5917 5920 5922 5923 5925 5927 5929 5931 5934 5936 5938 5940 5941 5942 5944 5945 5947 5948 5950 5951 5952 5952 5954 5955 5955 5956 5956 5956 5955 5955 5955 5955 5956 5956 5957 5958 5958 5959 5960 5961 5961 5962 5963 5964
5886 5888 5888 5889 5890 5891 5894 5896 5897 5899 5901 5903 5905 5906 5907 5908 5910 5912 5913 5915 5918 5920 5921 5923 5926 5928 5930 5932 5934 5936 5938 5940 5941 5943 5944 5946 5947 5949 5950 5951 5952 5953 5954 5955 5955 5956 5956 5955 5955 5955 5955 5955 5956 5956 5957 5958 5959 5960 5960 5961 5962 5962 5963
5884 5886 5887 5888 5889 5890 5891 5892 5894 5895 5897 5900 5902 5904 5906 5907 5909 5910 5912 5914 5916 5918 5920 5922 5925 5927 5928 5930 5932 5934 5936 5938 5939 5941 5943 5944 5946 5947 5948 5950 5951 5952 5953 5954 5955 5955 5955 5955 5955 5955 5955 5955 5955 5956 5957 5958 5959 5959 5960 5961 5961 5962 5963
5882 5883 5884 5885 5886 5887 5888 5889 5891 5892 5894 5897 5900 5902 5904 5906 5907 5909 5911 5913 5915 5917 5919 5920 5923 5925 5927 5928 5930 5933 5934 5936 5937 5939 5941 5943 5944 5945 5947 5948 5950 5951 5952 5953 5954 5954 5955 5955 5955 5955 5955 5955 5955 5956 5956 5957 5958 5959 5960 5961 5961 5962 5963
5879 5880 5882 5882 5882 5882 5884 5885 5886 5888 5890 5893 5897 5900 5902 5904 5906 5908 5909 5911 5913 5915 5917 5919 5920 5922 5924 5926 5928 5930 5932 5933 5935 5937 5939 5941 5942 5944 5945 5947 5948 5950 5951 5952 5952 5953 5954 5954 5955 5955 5955 5955 5955 5955 5956 5957 5957 5958 5959 5960 5961 5962 5962
5875 5877 5879 5881 5881 5881 5881 5881 5882 5884 5887 5890 5893 5897 5899 5902 5904 5906 5907 5909 5910 5913 5915 5916 5918 5920 5922 5924 5926 5928 5930 5932 5933 5935 5937 5939 5940 5941 5943 5944 5946 5948 5949 5950 5951 5952 5953 5953 5954 5954 5955 5955 5955 5955 5955 5956 5957 5958 5959 5960 5961 5961 5962
5872 5874 5876 5878 5881 5881 5881 5880 5880 5881 5883 5886 5889 5892 5895 5898 5900 5903 5905 5906 5908 5909 5911 5913 5915 5917 5919 5922 5923 5925 5927 5929 5932 5934 5936 5937 5938 5939 5941 5942 5944 5945 5946 5948 5949 5950 5951 5952 5953 5953 5954 5954 5954 5954 5955 5955 5956 5957 5958 5959 5960 5961 5962
5868 5870 5872 5874 5877 5880 5881 5882 5881 5881 5881 5882 5885 5888 5890 5893 5896 5899 5901 5903 5905 5906 5907 5910 5912 5914 5916 5918 5921 5923 5925 5927 5929 5932 5933 5934 5936 5936 5938 5939 5941 5943 5944 5945 5946 5947 5949 5950 5951 5952 5952 5953 5953 5953 5954 5955 5955 5956 5957 5958 5959 5960 5961
5864 5867 5868 5871 5873 5876 5879 5880 5882 5883 5882 5882 5882 5883 5886 5888 5891 5894 5896 5899 5901 5903 5904 5906 5908 5910 5913 5915 5918 5920 5922 5924 5927 5929 5930 5931 5932 5933 5935 5936 5938 5940 5941 5943 5944 5945 5947 5948 5950 5950 5951 5951 5952 5952 5953 5954 5955 5956 5956 5957 5958 5959 5960
5860 5862 5864 5867 5870 5872 5874 5877 5879 5881 5882 5882 5881 5881 5881 5883 5886 5889 5891 5894 5896 5898 5900 5902 5904 5907 5909 5912 5914 5917 5919 5921 5923 5925 5926 5927 5929 5930 5932 5933 5935 5937 5938 5940 5942 5943 5945 5946 5947 5948 5949 5950 5951 5951 5952 5953 5954 5955 5956 5957 5957 5958 5959
5855 5858 5860 5863 5865 5867 5870 5872 5874 5877 5879 5880 5881 5880 5879 5879 5881 5884 5886 5889 5892 5895 5897 5899 5901 5903 5905 5908 5911 5913 5915 5917 5919 5921 5922 5924 5925 5927 5929 5931 5932 5934 5935 5937 5939 5941 5942 5944 5945 5946 5948 5949 5949 5950 5951 5952 5953 5954 5955 5956 5956 5957 5958
5850 5853 5855 5858 5861 5863 5865 5867 5870 5872 5875 5877 5878 5879 5879 5879 5880 5881 5883 5885 5888 5891 5894 5896 5898 5900 5902 5904 5907 5909 5911 5913 5915 5917 5919 5921 5923 5925 5926 5928 5929 5931 5932 5934 5936 5937 5939 5941 5943 5945 5946 5947 5948 5949 5950 5951 5952 5953 5954 5955 5956 5956 5957
5845 5848 5850 5853 5856 5858 5860 5863 5866 5868 5871 5873 5874 5876 5877 5878 5880 5881 5881 5883 5885 5888 5890 5892 5895 5897 5899 5902 5904 5905 5907 5910 5912 5914 5916 5918 5920 5921 5923 5925 5926 5928 5930 5931 5933 5934 5936 5938 5940 5942 5944 5945 5946 5948 5949 5950 5951 5951 5953 5954 5954 5955 5956
5840 5843 5845 5848 5851 5853 5855 5858 5861 5863 5866 5869 5870 5872 5874 5875 5877 5879 5880 5881 5883 5885 5887 5889 5892 5894 5897 5899 5900 5902 5904 5906 5909 5911 5913 5915 5916 5918 5920 5921 5923 5925 5927 5929 5930 5931 5933 5935 5937 5939 5941 5942 5944 5946 5947 5948 5949 5950 5951 5952 5953 5954 5955
5835 5838 5840 5843 5845 5848 5850 5852 5855 5857 5860 5863 5866 5867 5869 5871 5873 5875 5877 5879 5881 5882 5884 5886 5889 5891 5893 5895 5897 5898 5901 5903 5905 5907 5909 5911 5912 5914 5915 5917 5920 5922 5924 5926 5927 5928 5930 5932 5934 5936 5938 5940 5941 5943 5945 5945 5946 5947 5949 5950 5951 5952 5953
5831 5833 5836 5838 5840 5843 5845 5847 5849 5851 5854 5858 5861 5863 5865 5867 5869 5871 5874 5876 5878 5880 5882 5884 5886 5888 5890 5891 5893 5895 5898 5900 5902 5903 5905 5907 5908 5910 5912 5914 5916 5919 5920 5922 5923 5925 5927 5930 5931 5933 5935 5936 5938 5940 5941 5942 5944 5945 5946 5947 5948 5949 5950
5826 5829 5831 5833 5836 5838 5840 5842 5844 5846 5849 5853 5856 5858 5861 5863 5865 5867 5869 5872 5875 5877 5879 5881 5882 5884 5886 5888 5890 5892 5894 5896 5899 5900 5902 5903 5904 5906 5908 5911 5913 5915 5916 5918 5919 5921 5924 5926 5928 5929 5931 5933 5935 5937 5938 5940 5941 5942 5943 5944 5945 5946 5947
5821 5823 5826 5828 5831 5833 5835 5837 5839 5842 5844 5847 5850 5853 5856 5859 5861 5863 5865 5868 5870 5873 5875 5877 5879 5881 5882 5884 5885 5887 5889 5892 5894 5897 5899 5900 5902 5904 5906 5908 5910 5911 5913 5914 5915 5917 5919 5921 5924 5926 5928 5929 5931 5933 5935 5936 5937 5938 5940 5941 5942 5942 5943
5815 5818 5821 5824 5826 5827 5830 5832 5834 5837 5839 5842 5845 5848 5851 5854 5857 5859 5861 5863 5866 5868 5870 5872 5875 5877 5878 5880 5882 5884 5885 5888 5890 5893 5896 5898 5901 5903 5906 5907 5909 5909 5910 5911 5912 5914 5915 5917 5919 5921 5923 5925 5927 5929 5931 5933 5933 5935 5937 5937 5938 5939 5940
5809 5812 5815 5818 5820 5821 5824 5826 5829 5831 5834 5836 5839 5843 5846 5849 5852 5854 5857 5859 5861 5862 5863 5865 5868 5871 5874 5875 5877 5880 5882 5885 5888 5890 5893 5895 5899 5901 5904 5906 5908 5908 5909 5909 5910 5911 5912 5913 5914 5916 5918 5920 5923 5925 5927 5928 5929 5931 5933 5934 5934 5935 5937
5802 5805 5808 5811 5813 5815 5818 5821 5823 5826 5829 5831 5833 5837 5841 5844 5846 5849 5851 5853 5854 5855 5856 5859 5861 5865 5868 5871 5874 5876 5879 5882 5885 5887 5890 5893 5895 5897 5899 5901 5903 5905 5907 5909 5910 5910 5910 5911 5911 5913 5914 5916 5918 5920 5923 5925 5925 5927 5929 5930 5930 5932 5933
5795 5798 5800 5803 5807 5809 5811 5815 5817 5820 5823 5826 5828 5832 5836 5839 5841 5843 5845 5847 5848 5850 5852 5854 5856 5859 5862 5866 5869 5872 5876 5879 5882 5884 5887 5889 5891 5893 5894 5895 5897 5900 5904 5907 5908 5909 5910 5910 5911 5912 5913 5914 5915 5916 5919 5921 5922 5923 5925 5926 5926 5928 5929
5787 5791 5793 5796 5799 5802 5804 5807 5811 5814 5817 5820 5822 5826 5830 5833 5835 5837 5840 5843 5844 5847 5849 5851 5853 5855 5858 5861 5864 5868 5871 5875 5878 5881 5883 5885 5887 5888 5890 5891 5893 5895 5899 5902 5903 5905 5907 5908 5909 5910 5911 5912 5913 5914 5915 5917 5919 5920 5921 5921 5922 5924 5925
5781 5784 5786 5789 5792 5795 5797 5800 5804 5808 5812 5814 5817 5820 5824 5827 5829 5832 5835 5838 5840 5843 5848 5851 5852 5853 5856 5858 5860 5863 5866 5870 5873 5876 5878 5880 5883 5885 5887 5888 5889 5891 5894 5898 5900 5902 5904 5906 5906 5907 5908 5910 5911 5911 5912 5913 5915 5916 5917 5918 5919 5920 5921
5773 5776 5779 5782 5785 5788 5791 5794 5797 5801 5804 5807 5810 5813 5817 5820 5824 5827 5830 5833 5836 5840 5844 5848 5850 5851 5852 5855 5856 5857 5860 5864 5868 5871 5873 5876 5878 5880 5882 5884 5886 5888 5891 5895 5897 5899 5901 5902 5903 5904 5906 5907 5909 5909 5909 5909 5910 5912 5913 5914 5915 5916 5917
5765 5768 5771 5774 5778 5781 5785 5788 5790 5793 5796 5799 5803 5806 5810 5814 5818 5821 5824 5827 5832 5835 5838 5842 5845 5847 5849 5851 5852 5852 5854 5858 5862 5866 5868 5870 5873 5876 5878 5880 5882 5885 5888 5891 5893 5895 5897 5898 5900 5901 5903 5905 5906 5906 5906 5906 5907 5908 5909 5910 5911 5912 5913
5756 5760 5763 5766 5770 5774 5778 5781 5784 5787 5790 5793 5797 5800 5804 5807 5811 5815 5818 5821 5825 5829 5833 5836 5839 5842 5844 5847 5849 5850 5852 5855 5859 5861 5862 5864 5868 5871 5874 5877 5879 5882 5885 5887 5889 5891 5893 5894 5896 5898 5900 5902 5903 5903 5903 5903 5904 5905 5906 5907 5907 5908 5909
5747 5752 5755 5757 5761 5766 5770 5774 5778 5781 5783 5787 5791 5794 5796 5799 5804 5807 5811 5814 5818 5822 5827 5830 5834 5836 5839 5842 5845 5848 5850 5852 5855 5857 5858 5860 5864 5867 5870 5873 5876 5879 5881 5883 5885 5887 5889 5891 5893 5894 5896 5898 5899 5900 5899 5900 5901 5902 5903 5904 5904 5904 5905
5738 5743 5747 5750 5753 5757 5762 5766 5770 5774 5777 5781 5785 5787 5789 5792 5797 5801 5804 5807 5811 5816 5820 5825 5828 5831 5834 5837 5839 5843 5846 5848 5850 5853 5855 5858 5861 5864 5867 5869 5872 5874 5877 5880 5883 5885 5886 5887 5889 5890 5892 5894 5895 5896 5896 5897 5898 5899 5900 5900 5900 5901 5901
5730 5733 5738 5742 5745 5749 5753 5757 5761 5765 5770 5774 5778 5781 5783 5786 5790 5794 5798 5801 5806 5810 5814 5818 5822 5825 5828 5831 5834 5837 5840 5843 5845 5848 5851 5855 5858 5861 5864 5866 5868 5870 5873 5876 5879 5881 5882 5883 5884 5886 5888 5890 5891 5891 5892 5893 5895 5897 5897 5896 5896 5896 5896
5721 5724 5729 5734 5738 5741 5744 5748 5752 5757 5761 5766 5770 5774 5776 5779 5784 5788 5791 5795 5800 5804 5808 5812 5816 5819 5822 5826 5829 5832 5835 5838 5840 5843 5847 5850 5853 5856 5859 5862 5864 5865 5868 5871 5874 5876 5878 5878 5880 5882 5884 5885 5886 5887 5888 5890 5892 5893 5892 5891 5892 5892 5893
5712 5716 5720 5724 5729 5733 5736 5740 5744 5748 5752 5756 5762 5767 5770 5773 5777 5781 5785 5789 5793 5797 5801 5805 5810 5813 5816 5820 5824 5827 5830 5833 5836 5839 5841 5844 5846 5850 5853 5857 5859 5861 5863 5866 5869 5871 5872 5873 5875 5877 5878 5879 5881 5883 5884 5887 5888 5887 5887 5888 5889 5889 5889
5703 5708 5712 5715 5720 5725 5729 5732 5736 5740 5743 5746 5753 5759 5764 5767 5771 5775 5779 5783 5787 5791 5795 5799 5804 5807 5811 5814 5817 5821 5825 5828 5831 5834 5836 5838 5840 5843 5847 5851 5854 5856 5859 5861 5864 5865 5867 5868 5870 5871 5873 5875 5877 5878 5880 5882 5883 5883 5883 5884 5885 5886 5886
5694 5698 5703 5707 5711 5717 5720 5723 5728 5732 5734 5737 5743 5751 5757 5761 5765 5769 5772 5777 5781 5785 5790 5794 5798 5801 5804 5808 5811 5814 5818 5822 5825 5828 5830 5833 5835 5838 5841 5844 5848 5851 5853 5856 5858 5859 5861 5862 5864 5866 5868 5870 5872 5873 5875 5877 5878 5878 5879 5880 5881 5882 5883